Time[GMT],current_speed[cm/s](2m),current_direction[angular_degrees](2m),temperature[C](2m),current_u[cm/s](2m),current_v[cm/s](2m),percent_oxygen_saturation[ml/l](2m)
2013-10-29 21:00,9.39,298.7,12.80,-8.23,4.50,
2013-10-29 22:00,8.21,302.5,12.77,-6.92,4.42,
2013-10-29 23:00,7.33,339.1,12.74,-2.61,6.85,
2013-10-30 01:00,12.32,31.5,12.74,6.43,10.51,
2013-10-30 02:00,14.08,49.4,12.74,10.69,9.16,
2013-10-30 03:00,17.01,49.0,12.74,12.85,11.15,
2013-10-30 04:00,21.41,54.3,12.77,17.39,12.49,
2013-10-30 05:00,23.17,55.0,12.74,18.99,13.28,
2013-10-30 06:00,17.01,50.8,12.74,13.18,10.75,
2013-10-30 07:00,13.79,53.3,12.71,11.05,8.25,
2013-10-30 09:00,4.99,58.9,12.67,4.27,2.58,
2013-10-30 10:00,3.81,72.6,12.64,3.64,1.14,
2013-10-30 11:00,2.05,119.0,12.61,1.80,-1.00,
2013-10-30 12:00,2.35,80.3,12.61,2.31,0.39,
2013-10-30 13:00,7.63,93.0,12.58,7.62,-0.40,
2013-10-30 14:00,3.23,59.9,12.58,2.79,1.62,
2013-10-30 15:00,7.63,54.3,12.58,6.19,4.45,
2013-10-30 16:00,11.44,35.0,12.58,6.56,9.37,
2013-10-30 17:00,14.08,44.1,12.64,9.80,10.11,
2013-10-30 18:00,14.37,31.5,12.64,7.50,12.26,
2013-10-30 19:00,14.37,31.5,12.64,7.50,12.26,
2013-10-30 20:00,9.97,7.9,12.64,1.37,9.88,
2013-10-30 21:00,8.80,17.1,12.64,2.58,8.41,
2013-10-30 22:00,6.75,48.7,12.64,5.07,4.45,
2013-10-30 23:00,5.57,69.8,12.64,5.23,1.93,
2013-10-31 00:00,3.52,51.9,12.64,2.77,2.17,
2013-10-31 01:00,6.45,53.6,12.64,5.19,3.83,
2013-10-31 02:00,7.92,65.2,12.64,7.19,3.32,
2013-10-31 03:00,12.91,64.9,12.64,11.68,5.48,
2013-10-31 04:00,15.54,66.6,12.67,14.27,6.17,
2013-10-31 05:00,16.13,49.7,12.64,12.31,10.42,
2013-10-31 06:00,14.37,44.1,12.64,10.01,10.32,
2013-10-31 07:00,10.27,14.6,12.61,2.59,9.93,
2013-10-31 08:00,10.85,339.1,12.61,-3.87,10.14,
2013-10-31 09:00,9.39,335.2,12.64,-3.93,8.52,
2013-10-31 10:00,12.91,346.5,12.64,-3.02,12.55,
2013-10-31 11:00,3.23,5.8,12.61,0.33,3.21,
2013-10-31 12:00,6.45,357.0,12.61,-0.34,6.44,
2013-10-31 13:00,10.85,2.6,12.61,0.50,10.84,
2013-10-31 14:00,14.66,41.3,12.64,9.68,11.02,
2013-10-31 15:00,14.37,51.2,12.64,11.19,9.01,
2013-10-31 16:00,21.70,48.3,12.61,16.22,14.43,
2013-10-31 17:00,20.82,48.0,12.61,15.47,13.94,
2013-10-31 18:00,22.58,44.5,12.61,15.82,16.11,
2013-10-31 19:00,21.41,33.2,12.58,11.73,17.91,
2013-10-31 20:00,15.54,7.6,12.58,2.04,15.41,
2013-10-31 21:00,14.08,354.5,12.58,-1.34,14.01,
2013-10-31 22:00,12.61,344.7,12.58,-3.33,12.17,
2013-10-31 23:00,9.97,326.5,12.58,-5.51,8.31,
2013-11-01 00:00,7.33,2.6,12.61,0.34,7.32,
2013-11-01 01:00,5.28,358.4,12.61,-0.15,5.28,
2013-11-01 02:00,9.68,36.4,12.61,5.74,7.79,
2013-11-01 03:00,10.85,49.4,12.61,8.24,7.06,
2013-11-01 04:00,18.48,50.5,12.61,14.25,11.77,
2013-11-01 05:00,17.89,48.7,12.58,13.44,11.81,
2013-11-01 06:00,23.17,48.0,12.52,17.22,15.51,
2013-11-01 07:00,26.69,41.3,12.45,17.62,20.05,
2013-11-01 08:00,17.01,25.5,12.49,7.32,15.36,
2013-11-01 09:00,15.25,18.5,12.49,4.83,14.47,
2013-11-01 10:00,10.56,13.2,12.49,2.41,10.28,
2013-11-01 11:00,10.27,11.8,12.49,2.10,10.05,
2013-11-01 12:00,8.51,22.7,12.49,3.28,7.85,
2013-11-01 13:00,19.36,50.8,12.45,15.00,12.23,
2013-11-01 14:00,21.12,57.1,12.42,17.74,11.46,
2013-11-01 15:00,23.17,56.1,12.39,19.23,12.93,
2013-11-01 16:00,27.86,80.3,12.39,27.47,4.68,
2013-11-01 17:00,39.89,72.6,12.36,38.06,11.93,
2013-11-01 19:00,25.52,80.0,12.33,25.13,4.44,
2013-11-01 20:00,26.40,95.5,12.33,26.28,-2.51,
2013-11-01 21:00,18.48,97.6,12.33,18.32,-2.43,
2013-11-01 22:00,12.32,156.3,12.33,4.95,-11.28,
2013-11-01 23:00,12.91,196.7,12.33,-3.71,-12.36,
2013-11-02 00:00,11.15,241.7,12.33,-9.82,-5.28,
2013-11-02 01:00,4.69,265.6,12.33,-4.68,-0.36,
2013-11-02 02:00,4.40,356.7,12.33,-0.26,4.39,
2013-11-02 03:00,6.45,343.7,12.33,-1.81,6.19,
2013-11-02 04:00,3.23,11.1,12.33,0.62,3.17,
2013-11-02 05:00,9.68,50.8,12.30,7.50,6.12,
2013-11-02 06:00,10.85,53.3,12.30,8.70,6.49,
2013-11-02 07:00,12.61,78.6,12.30,12.36,2.50,
2013-11-02 08:00,13.49,56.4,12.33,11.24,7.46,
2013-11-02 09:00,7.63,40.6,12.33,4.96,5.79,
2013-11-02 10:00,2.35,349.6,12.33,-0.42,2.31,
2013-11-02 11:00,2.35,19.2,12.33,0.77,2.22,
2013-11-02 12:00,1.47,236.1,12.33,-1.22,-0.82,
2013-11-02 14:00,5.57,133.1,12.36,4.07,-3.81,
2013-11-02 15:00,7.04,118.3,12.36,6.20,-3.34,
2013-11-02 16:00,7.92,107.8,12.39,7.54,-2.42,
2013-11-02 17:00,9.39,85.6,12.49,9.36,0.72,
2013-11-02 18:00,21.12,76.8,12.64,20.56,4.81,
2013-11-02 19:00,25.52,63.1,12.64,22.76,11.54,
2013-11-02 20:00,20.82,56.8,12.58,17.42,11.41,
2013-11-02 21:00,14.37,34.3,12.64,8.09,11.88,
2013-11-02 22:00,8.80,17.4,12.61,2.63,8.40,
2013-11-02 23:00,3.52,354.5,12.52,-0.33,3.50,
2013-11-03 00:00,2.64,315.2,12.45,-1.86,1.87,
2013-11-03 01:00,1.47,266.7,12.42,-1.46,-0.08,
2013-11-03 02:00,2.35,260.7,12.42,-2.32,-0.38,
2013-11-03 03:00,6.45,158.0,12.42,2.41,-5.98,
2013-11-03 04:00,6.16,130.6,12.39,4.68,-4.01,
2013-11-03 05:00,11.44,115.5,12.39,10.32,-4.92,
2013-11-03 06:00,9.09,102.8,12.39,8.86,-2.02,
2013-11-03 07:00,11.44,116.2,12.39,10.26,-5.05,
2013-11-03 08:00,11.15,171.1,12.39,1.73,-11.01,
2013-11-03 09:00,17.01,190.4,12.39,-3.07,-16.73,
2013-11-03 10:00,20.24,225.2,12.36,-14.36,-14.26,
2013-11-03 11:00,19.65,228.7,12.33,-14.77,-12.97,
2013-11-03 12:00,32.85,243.8,12.30,-29.48,-14.49,
2013-11-03 13:00,32.26,243.8,12.30,-28.96,-14.23,
2013-11-03 14:00,22.29,239.6,12.30,-19.23,-11.28,
2013-11-03 15:00,11.44,269.5,12.30,-11.44,-0.10,
2013-11-03 16:00,8.80,255.8,12.27,-8.53,-2.16,
2013-11-03 17:00,1.76,313.8,12.27,-1.27,1.22,
2013-11-03 18:00,3.23,14.6,12.27,0.81,3.12,
2013-11-03 19:00,11.73,48.7,12.23,8.81,7.74,
2013-11-03 20:00,18.48,56.1,12.23,15.33,10.31,
2013-11-03 21:00,14.96,74.4,12.23,14.40,4.03,
2013-11-03 22:00,7.04,81.0,12.20,6.95,1.10,
2013-11-03 23:00,,,,,,
2013-11-04 00:00,10.27,173.9,12.20,1.10,-10.21,
2013-11-04 01:00,14.37,202.7,12.14,-5.55,-13.26,
2013-11-04 02:00,20.53,208.0,12.14,-9.63,-18.13,
2013-11-04 03:00,26.40,203.4,12.14,-10.48,-24.23,
2013-11-04 04:00,18.48,217.5,12.14,-11.24,-14.67,
2013-11-04 05:00,22.88,199.2,12.11,-7.52,-21.61,
2013-11-04 06:00,12.91,218.5,12.08,-8.04,-10.10,
2013-11-04 07:00,8.51,210.8,12.05,-4.35,-7.31,
2013-11-04 08:00,6.45,153.5,12.01,2.88,-5.77,
2013-11-04 09:00,6.45,283.6,12.01,-6.27,1.51,
2013-11-04 10:00,6.45,272.3,11.98,-6.45,0.26,
2013-11-04 12:00,15.84,247.7,11.95,-14.65,-6.01,
2013-11-04 13:00,16.72,255.1,11.95,-16.15,-4.30,
2013-11-04 14:00,20.53,260.7,11.98,-20.26,-3.31,
2013-11-04 15:00,7.92,210.8,11.95,-4.05,-6.80,
2013-11-04 16:00,5.57,203.0,11.95,-2.18,-5.13,
2013-11-04 17:00,,,,,,
2013-11-04 18:00,12.03,131.0,11.95,9.08,-7.88,
2013-11-04 19:00,12.61,100.4,11.95,12.41,-2.27,
2013-11-04 20:00,9.97,107.8,11.92,9.50,-3.04,
2013-11-04 21:00,10.85,99.0,11.92,10.72,-1.69,
2013-11-04 22:00,4.69,92.6,11.89,4.69,-0.22,
2013-11-04 23:00,8.21,234.7,11.89,-6.70,-4.75,
2013-11-05 00:00,14.66,252.3,11.89,-13.97,-4.47,
2013-11-05 01:00,16.72,253.3,11.89,-16.02,-4.80,
2013-11-05 02:00,19.94,258.6,11.86,-19.55,-3.94,
2013-11-05 03:00,18.18,264.9,11.86,-18.11,-1.61,
2013-11-05 04:00,10.56,278.3,11.86,-10.45,1.52,
2013-11-05 05:00,1.76,285.7,11.86,-1.69,0.48,
2013-11-05 06:00,6.75,65.6,11.83,6.14,2.79,
2013-11-05 07:00,8.80,88.4,11.83,8.80,0.24,
2013-11-05 08:00,16.42,78.6,11.79,16.10,3.25,
2013-11-05 09:00,12.03,75.1,11.76,11.62,3.10,
2013-11-05 10:00,9.68,67.0,11.79,8.91,3.79,
2013-11-05 11:00,2.05,96.9,11.76,2.04,-0.25,
2013-11-05 12:00,4.40,250.9,11.76,-4.16,-1.44,
2013-11-05 13:00,12.91,237.2,11.76,-10.84,-7.00,
2013-11-05 14:00,12.32,242.4,11.76,-10.92,-5.70,
2013-11-05 15:00,14.66,241.4,11.76,-12.87,-7.03,
2013-11-05 16:00,14.37,218.2,11.86,-8.88,-11.30,
2013-11-05 17:00,10.85,221.3,11.89,-7.17,-8.15,
2013-11-05 18:00,6.75,218.5,11.89,-4.20,-5.28,
2013-11-05 19:00,3.81,123.9,11.98,3.16,-2.13,
2013-11-05 20:00,4.40,69.4,11.98,4.12,1.55,
2013-11-05 21:00,11.44,41.3,11.89,7.55,8.59,
2013-11-05 22:00,15.54,42.7,11.89,10.55,11.42,
2013-11-05 23:00,12.91,52.6,11.79,10.25,7.85,
2013-11-06 00:00,8.51,9.0,11.79,1.33,8.40,
2013-11-06 01:00,4.99,3.0,11.76,0.26,4.98,
2013-11-06 02:00,7.92,333.8,11.73,-3.49,7.11,
2013-11-06 03:00,3.81,308.2,11.76,-3.00,2.36,
2013-11-06 04:00,2.35,338.1,11.73,-0.88,2.18,
2013-11-06 05:00,3.23,107.8,11.73,3.07,-0.98,
2013-11-06 06:00,9.68,83.2,11.73,9.61,1.15,
2013-11-06 07:00,13.20,87.7,11.73,13.19,0.52,
2013-11-06 08:00,14.37,92.3,11.73,14.36,-0.57,
2013-11-06 09:00,11.73,83.5,11.73,11.66,1.33,
2013-11-06 10:00,10.85,65.9,11.70,9.91,4.43,
2013-11-06 11:00,9.68,52.9,11.73,7.72,5.84,
2013-11-06 12:00,4.11,21.3,11.70,1.49,3.83,
2013-11-06 13:00,10.85,305.0,11.70,-8.89,6.23,
2013-11-06 14:00,10.56,306.1,11.70,-8.54,6.22,
2013-11-06 15:00,13.79,289.9,11.73,-12.96,4.69,
2013-11-06 16:00,11.73,349.3,11.73,-2.18,11.53,
2013-11-06 17:00,7.04,13.9,11.76,1.69,6.83,
2013-11-06 18:00,15.84,30.1,11.76,7.93,13.71,
2013-11-06 19:00,18.48,30.4,11.76,9.35,15.94,
2013-11-06 20:00,18.18,48.0,11.76,13.51,12.17,
2013-11-06 21:00,18.18,65.6,11.76,16.56,7.52,
2013-11-06 22:00,27.57,65.9,11.76,25.17,11.25,
2013-11-06 23:00,21.41,52.6,11.76,17.00,13.02,
2013-11-07 00:00,14.08,58.2,11.73,11.96,7.42,
2013-11-07 01:00,2.35,325.1,11.73,-1.34,1.92,
2013-11-07 02:00,4.99,325.8,11.73,-2.81,4.12,
2013-11-07 03:00,6.16,300.4,11.73,-5.31,3.12,
2013-11-07 04:00,2.93,275.5,11.73,-2.92,0.28,
2013-11-07 06:00,4.11,66.6,11.73,3.77,1.63,
2013-11-07 07:00,13.20,86.7,11.73,13.18,0.77,
2013-11-07 08:00,14.96,58.9,11.73,12.81,7.73,
2013-11-07 09:00,19.36,69.1,11.73,18.08,6.91,
2013-11-07 10:00,14.66,69.1,11.73,13.70,5.23,
2013-11-07 11:00,18.18,50.8,11.73,14.09,11.49,
2013-11-07 12:00,10.27,64.2,11.73,9.24,4.47,
2013-11-07 13:00,5.87,7.2,11.73,0.74,5.82,
2013-11-07 14:00,10.56,314.9,11.76,-7.48,7.45,
2013-11-07 15:00,8.51,290.2,11.76,-7.98,2.94,
2013-11-07 16:00,8.51,298.3,11.76,-7.49,4.04,
2013-11-07 17:00,9.97,281.1,11.79,-9.79,1.92,
2013-11-07 18:00,1.47,120.8,11.76,1.26,-0.75,
2013-11-07 19:00,9.68,119.4,11.79,8.44,-4.75,
2013-11-07 20:00,15.25,101.8,11.83,14.93,-3.12,
2013-11-07 21:00,15.54,105.7,11.79,14.97,-4.19,
2013-11-07 22:00,17.01,118.7,11.79,14.93,-8.16,
2013-11-07 23:00,10.85,89.8,11.76,10.85,0.03,
2013-11-08 00:00,5.57,86.0,11.76,5.56,0.39,
2013-11-08 01:00,,163.2,,-0.08,0.28,
2013-11-08 02:00,14.66,225.9,11.76,-10.53,-10.21,
2013-11-08 03:00,16.42,244.2,11.73,-14.79,-7.15,
2013-11-08 04:00,20.82,238.6,11.70,-17.77,-10.86,
2013-11-08 05:00,20.82,259.7,11.73,-20.49,-3.74,
2013-11-08 06:00,14.66,223.1,11.70,-10.02,-10.71,
2013-11-08 07:00,11.15,215.4,11.64,-6.45,-9.09,
2013-11-08 08:00,8.21,181.2,11.61,-0.18,-8.21,
2013-11-08 09:00,5.57,124.3,11.57,4.60,-3.14,
2013-11-08 10:00,8.80,104.6,11.57,8.51,-2.22,
2013-11-08 11:00,15.25,85.3,11.57,15.20,1.26,
2013-11-08 12:00,21.12,71.5,11.57,20.03,6.68,
2013-11-08 13:00,17.30,69.4,11.61,16.20,6.08,
2013-11-08 14:00,6.75,100.7,11.61,6.63,-1.26,
2013-11-08 15:00,2.05,41.7,11.64,1.36,1.53,
2013-11-08 16:00,2.64,143.3,11.64,1.58,-2.12,
2013-11-08 17:00,3.81,232.6,11.64,-3.03,-2.32,
2013-11-08 18:00,2.35,26.9,11.64,1.06,2.09,
2013-11-08 19:00,10.85,82.4,11.64,10.76,1.43,
2013-11-08 20:00,12.03,106.4,11.61,11.54,-3.39,
2013-11-08 21:00,15.25,104.6,11.57,14.76,-3.84,
2013-11-08 22:00,13.49,139.4,11.57,8.78,-10.25,
2013-11-08 23:00,18.18,109.2,11.54,17.18,-5.97,
2013-11-09 00:00,19.06,93.7,11.57,19.02,-1.23,
2013-11-09 01:00,5.57,62.4,11.57,4.94,2.58,
2013-11-09 02:00,7.04,53.6,11.57,5.67,4.18,
2013-11-09 03:00,3.81,293.1,11.51,-3.51,1.49,
2013-11-09 04:00,2.05,28.3,11.51,0.97,1.81,
2013-11-09 05:00,5.57,307.1,11.48,-4.44,3.36,
2013-11-09 06:00,5.28,267.7,11.54,-5.28,-0.21,
2013-11-09 07:00,4.40,24.4,11.51,1.82,4.01,
2013-11-09 08:00,15.84,85.6,11.48,15.79,1.21,
2013-11-09 09:00,13.49,87.7,11.45,13.48,0.54,
2013-11-09 10:00,13.49,75.4,11.48,13.06,3.40,
2013-11-09 11:00,21.12,73.0,11.48,20.19,6.19,
2013-11-09 12:00,22.29,64.9,11.48,20.18,9.47,
2013-11-09 13:00,26.10,59.2,11.45,22.43,13.35,
2013-11-09 14:00,17.60,63.5,11.45,15.74,7.86,
2013-11-09 15:00,5.57,113.7,11.45,5.10,-2.24,
2013-11-09 16:00,6.16,205.5,11.45,-2.65,-5.56,
2013-11-09 17:00,7.04,144.3,11.45,4.10,-5.72,
2013-11-09 18:00,8.21,235.7,11.45,-6.79,-4.62,
2013-11-09 19:00,7.92,242.1,11.42,-7.00,-3.71,
2013-11-09 20:00,3.23,141.9,11.42,1.99,-2.54,
2013-11-09 21:00,4.11,50.5,11.39,3.17,2.61,
2013-11-09 22:00,14.96,25.1,11.39,6.35,13.54,
2013-11-10 00:00,25.22,44.1,11.35,17.56,18.11,
2013-11-10 01:00,23.46,47.6,11.35,17.34,15.81,
2013-11-10 02:00,26.40,53.3,11.32,21.15,15.79,
2013-11-10 03:00,19.65,50.8,11.26,15.23,12.42,
2013-11-10 04:00,11.73,53.3,11.23,9.40,7.02,
2013-11-10 06:00,1.76,28.0,11.23,0.82,1.55,
2013-11-10 07:00,7.04,286.4,11.23,-6.75,1.98,
2013-11-10 08:00,6.45,337.4,11.23,-2.48,5.96,
2013-11-10 09:00,7.04,8.3,11.20,1.01,6.97,
2013-11-10 10:00,15.25,42.0,11.20,10.21,11.33,
2013-11-10 11:00,19.65,61.4,11.17,17.25,9.42,
2013-11-10 12:00,23.17,53.6,11.04,18.65,13.74,
2013-11-10 13:00,28.74,42.7,10.88,19.50,21.12,
2013-11-10 14:00,14.08,75.8,10.69,13.65,3.46,
2013-11-10 15:00,18.18,84.2,10.72,18.09,1.84,
2013-11-10 16:00,7.33,76.5,10.76,7.13,1.72,
2013-11-10 17:00,6.45,102.8,10.82,6.29,-1.43,
2013-11-10 18:00,4.40,159.1,10.82,1.57,-4.11,
2013-11-10 19:00,4.40,159.1,10.82,1.57,-4.11,
2013-11-10 20:00,9.39,310.3,11.07,-7.16,6.07,
2013-11-10 21:00,6.75,11.1,11.10,1.30,6.62,
2013-11-10 22:00,10.85,70.5,11.07,10.23,3.62,
2013-11-10 23:00,16.42,64.9,11.01,14.87,6.98,
2013-11-11 00:00,16.42,68.0,10.91,15.23,6.14,
2013-11-11 01:00,17.60,99.0,10.76,17.38,-2.74,
2013-11-11 02:00,17.01,101.8,10.72,16.65,-3.47,
2013-11-11 03:00,11.44,69.1,10.72,10.69,4.08,
2013-11-11 04:00,9.39,107.4,10.72,8.96,-2.81,
2013-11-11 05:00,1.17,51.5,10.72,0.92,0.73,
2013-11-11 06:00,1.76,295.5,10.72,-1.59,0.76,
2013-11-11 07:00,8.21,101.1,10.79,8.06,-1.58,
2013-11-11 08:00,11.15,213.2,10.82,-6.11,-9.32,
2013-11-11 09:00,3.81,327.2,10.85,-2.07,3.20,
2013-11-11 10:00,7.33,157.3,10.85,2.83,-6.77,
2013-11-11 11:00,13.79,97.6,10.76,13.67,-1.82,
2013-11-11 12:00,9.39,112.3,10.69,8.68,-3.57,
2013-11-11 13:00,,,,,,
2013-11-11 14:00,14.08,66.6,10.63,12.92,5.59,
2013-11-11 15:00,10.27,49.4,10.69,7.79,6.68,
2013-11-11 16:00,13.49,42.0,10.85,9.03,10.02,
2013-11-11 17:00,10.85,5.4,10.98,1.03,10.80,
2013-11-11 18:00,9.97,4.4,11.01,0.76,9.94,
2013-11-11 19:00,13.49,334.9,11.13,-5.72,12.22,
2013-11-11 20:00,12.32,345.1,11.13,-3.18,11.90,
2013-11-11 21:00,10.56,352.4,11.10,-1.39,10.47,
2013-11-11 22:00,9.68,29.4,11.10,4.74,8.44,
2013-11-11 23:00,18.48,52.6,11.10,14.67,11.23,
2013-11-12 00:00,19.94,49.0,11.13,15.06,13.07,
2013-11-12 01:00,18.18,64.9,11.10,16.46,7.72,
2013-11-12 02:00,25.52,79.3,11.01,25.07,4.74,
2013-11-12 03:00,21.41,86.3,10.98,21.37,1.38,
2013-11-12 04:00,16.42,62.1,10.94,14.51,7.70,
2013-11-12 06:00,5.87,46.6,10.91,4.26,4.03,
2013-11-12 07:00,4.40,359.5,10.94,-0.04,4.40,
2013-11-12 08:00,6.16,260.7,10.94,-6.08,-0.99,
2013-11-12 09:00,12.03,241.0,10.94,-10.52,-5.83,
2013-11-12 10:00,5.87,216.8,10.94,-3.51,-4.70,
2013-11-12 11:00,5.87,131.0,10.91,4.43,-3.85,
2013-11-12 12:00,9.09,121.5,10.91,7.75,-4.75,
2013-11-12 13:00,5.87,155.6,10.91,2.43,-5.34,
2013-11-12 14:00,9.97,107.1,10.88,9.53,-2.93,
2013-11-12 15:00,12.03,103.5,10.85,11.69,-2.82,
2013-11-12 16:00,15.54,84.6,10.82,15.47,1.47,
2013-11-12 17:00,5.87,75.8,10.79,5.69,1.44,
2013-11-12 18:00,6.45,193.6,10.76,-1.51,-6.27,
2013-11-12 19:00,5.87,269.5,10.76,-5.87,-0.05,
2013-11-12 20:00,,,,,,
2013-11-12 21:00,12.61,267.7,10.76,-12.60,-0.50,
2013-11-12 22:00,9.39,262.1,10.79,-9.30,-1.29,
2013-11-12 23:00,4.11,235.7,10.76,-3.39,-2.31,
2013-11-13 00:00,6.45,131.0,10.69,4.87,-4.23,
2013-11-13 01:00,6.16,172.8,10.69,0.77,-6.11,
2013-11-13 02:00,5.87,144.0,10.66,3.45,-4.74,
2013-11-13 03:00,,351.0,0.12,0.09,-0.58,
2013-11-13 04:00,14.66,96.2,10.57,14.58,-1.57,
2013-11-13 05:00,13.49,102.8,10.50,13.15,-3.00,
2013-11-13 06:00,7.63,128.5,10.50,5.97,-4.75,
2013-11-13 07:00,5.28,344.0,10.50,-1.46,5.07,
2013-11-13 08:00,11.73,287.1,10.50,-11.21,3.45,
2013-11-13 09:00,4.69,292.4,10.50,-4.34,1.78,
2013-11-13 10:00,10.27,267.0,10.50,-10.25,-0.53,
2013-11-13 11:00,10.27,209.4,10.63,-5.04,-8.95,
2013-11-13 12:00,3.23,53.6,10.63,2.60,1.91,
2013-11-13 13:00,3.23,53.6,10.63,2.60,1.91,
2013-11-13 14:00,11.73,102.5,10.63,11.45,-2.54,
2013-11-13 15:00,12.32,106.0,10.57,11.84,-3.40,
2013-11-13 16:00,14.66,84.2,10.54,14.59,1.48,
2013-11-13 17:00,14.96,73.3,10.47,14.33,4.30,
2013-11-13 18:00,12.61,45.9,10.44,9.05,8.78,
2013-11-13 19:00,6.45,58.2,10.44,5.48,3.40,
2013-11-13 20:00,6.16,309.9,10.41,-4.72,3.95,
2013-11-13 21:00,10.27,341.6,10.38,-3.24,9.74,
2013-11-13 22:00,6.16,12.8,10.38,1.37,6.01,
2013-11-13 23:00,3.81,294.5,10.38,-3.47,1.58,
2013-11-14 00:00,5.87,320.5,10.35,-3.73,4.53,
2013-11-14 01:00,11.44,50.8,10.31,8.86,7.23,
2013-11-14 02:00,13.49,41.3,10.31,8.91,10.13,
2013-11-14 03:00,17.01,55.7,10.31,14.06,9.58,
2013-11-14 04:00,22.29,57.1,10.28,18.72,12.10,
2013-11-14 05:00,21.41,49.7,10.28,16.34,13.83,
2013-11-14 06:00,28.45,61.0,10.25,24.88,13.79,
2013-11-14 07:00,19.94,50.8,10.19,15.46,12.60,
2013-11-14 08:00,21.12,61.4,10.13,18.53,10.12,
2013-11-14 09:00,13.79,27.6,10.09,6.39,12.22,
2013-11-14 10:00,20.82,24.4,10.09,8.61,18.96,
2013-11-14 11:00,16.42,8.6,10.13,2.46,16.24,
2013-11-14 12:00,7.33,349.3,10.16,-1.36,7.20,
2013-11-14 13:00,15.54,19.9,10.16,5.28,14.62,
2013-11-14 14:00,21.12,36.4,10.13,12.53,17.00,
2013-11-14 15:00,17.89,17.8,10.09,5.46,17.04,
2013-11-14 16:00,27.57,33.2,10.00,15.11,23.06,
2013-11-14 17:00,20.82,34.6,9.94,11.83,17.13,
2013-11-14 18:00,14.37,83.9,9.78,14.29,1.54,
2013-11-14 19:00,19.06,88.1,9.90,19.05,0.64,
2013-11-14 20:00,13.79,99.7,9.94,13.59,-2.32,
2013-11-14 21:00,2.93,123.9,9.90,2.43,-1.64,
2013-11-14 22:00,0.88,38.8,9.90,0.55,0.69,
2013-11-14 23:00,5.87,331.0,9.87,-2.84,5.13,
2013-11-15 00:00,3.81,283.6,9.84,-3.71,0.89,
2013-11-15 01:00,1.47,68.7,9.81,1.37,0.53,
2013-11-15 02:00,11.73,63.8,9.81,10.53,5.18,
2013-11-15 03:00,16.42,51.9,9.81,12.92,10.14,
2013-11-15 04:00,24.64,88.1,9.65,24.62,0.83,
2013-11-15 05:00,38.13,101.4,9.72,37.37,-7.56,
2013-11-15 06:00,47.81,86.3,9.75,47.71,3.07,
2013-11-15 07:00,43.41,89.1,9.81,43.40,0.66,
2013-11-15 08:00,35.49,90.5,9.81,35.49,-0.33,
2013-11-15 09:00,25.22,93.3,9.81,25.18,-1.47,
2013-11-15 10:00,21.70,97.9,9.81,21.50,-2.99,
2013-11-15 11:00,17.30,105.3,9.81,16.69,-4.57,
2013-11-15 12:00,15.54,105.0,9.78,15.02,-4.01,
2013-11-15 13:00,17.01,106.4,9.81,16.32,-4.79,
2013-11-15 14:00,18.48,93.3,9.81,18.45,-1.08,
2013-11-15 15:00,26.40,96.2,9.84,26.24,-2.83,
2013-11-15 16:00,27.86,88.8,9.84,27.86,0.59,
2013-11-15 17:00,26.40,87.4,9.84,26.37,1.21,
2013-11-15 18:00,28.45,72.3,9.90,27.10,8.67,
2013-11-15 19:00,31.09,48.7,10.25,23.35,20.52,
2013-11-15 20:00,27.28,36.4,10.28,16.18,21.96,
2013-11-15 21:00,20.53,19.5,10.25,6.86,19.35,
2013-11-15 22:00,21.12,13.9,10.22,5.07,20.50,
2013-11-15 23:00,11.15,4.0,10.25,0.79,11.12,
2013-11-16 00:00,15.54,351.4,10.28,-2.33,15.37,
2013-11-16 01:00,11.15,333.1,10.28,-5.04,9.94,
2013-11-16 02:00,7.33,4.7,10.35,0.61,7.31,
2013-11-16 03:00,10.85,20.2,10.35,3.75,10.18,
2013-11-16 04:00,18.77,48.3,10.41,14.02,12.48,
2013-11-16 05:00,16.13,54.0,10.41,13.05,9.49,
2013-11-16 06:00,16.42,65.6,10.38,14.95,6.79,
2013-11-16 07:00,18.18,71.5,10.28,17.25,5.76,
2013-11-16 08:00,9.68,87.0,10.31,9.67,0.50,
2013-11-16 09:00,2.93,327.2,10.31,-1.59,2.46,
2013-11-16 10:00,6.75,229.8,10.28,-5.15,-4.36,
2013-11-16 11:00,7.92,252.6,10.22,-7.56,-2.37,
2013-11-16 12:00,14.08,263.5,10.16,-13.99,-1.59,
2013-11-16 13:00,20.82,268.8,10.22,-20.82,-0.44,
2013-11-16 14:00,18.48,278.3,10.25,-18.28,2.66,
2013-11-16 15:00,14.08,301.1,10.28,-12.05,7.28,
2013-11-16 16:00,12.03,325.4,10.28,-6.83,9.90,
2013-11-16 17:00,12.32,333.8,10.35,-5.43,11.06,
2013-11-16 18:00,14.96,5.8,10.35,1.51,14.88,
2013-11-16 19:00,15.84,2.6,10.28,0.73,15.82,
2013-11-16 20:00,16.72,356.0,10.41,-1.18,16.68,
2013-11-16 21:00,9.68,345.1,10.22,-2.50,9.35,
2013-11-16 22:00,8.51,301.8,10.16,-7.23,4.49,
2013-11-16 23:00,9.68,324.3,10.19,-5.64,7.86,
2013-11-17 00:00,15.25,309.6,10.22,-11.75,9.72,
2013-11-17 01:00,17.89,286.7,10.19,-17.13,5.15,
2013-11-17 02:00,13.49,254.7,10.13,-13.02,-3.55,
2013-11-17 03:00,4.69,219.2,10.13,-2.97,-3.64,
2013-11-17 04:00,7.33,123.9,10.06,6.08,-4.09,
2013-11-17 05:00,16.13,97.9,10.16,15.98,-2.22,
2013-11-17 06:00,12.61,104.2,10.16,12.22,-3.10,
2013-11-17 07:00,19.94,109.5,10.16,18.80,-6.66,
2013-11-17 08:00,19.06,96.2,10.19,18.95,-2.05,
2013-11-17 09:00,11.44,106.0,10.22,11.00,-3.15,
2013-11-17 10:00,7.33,171.1,10.22,1.14,-7.24,
2013-11-17 11:00,9.97,213.2,10.22,-5.47,-8.34,
2013-11-17 12:00,11.73,229.1,10.22,-8.86,-7.69,
2013-11-17 13:00,15.25,217.1,10.19,-9.20,-12.16,
2013-11-17 14:00,17.30,221.7,10.16,-11.51,-12.92,
2013-11-17 15:00,15.54,194.3,10.16,-3.83,-15.07,
2013-11-17 16:00,14.37,185.1,10.19,-1.28,-14.31,
2013-11-17 17:00,8.80,132.4,10.22,6.50,-5.93,
2013-11-17 18:00,17.01,117.6,10.28,15.07,-7.88,
2013-11-17 19:00,15.25,92.3,10.31,15.24,-0.61,
2013-11-17 20:00,19.36,82.4,10.31,19.19,2.54,
2013-11-17 21:00,19.36,81.0,10.31,19.12,3.01,
2013-11-17 22:00,11.73,88.1,10.31,11.73,0.39,
2013-11-17 23:00,2.05,51.5,10.31,1.61,1.28,
2013-11-18 00:00,13.49,291.6,10.28,-12.54,4.98,
2013-11-18 01:00,12.03,274.8,10.28,-11.98,1.00,
2013-11-18 02:00,11.44,248.1,10.25,-10.61,-4.28,
2013-11-18 03:00,13.20,225.5,10.25,-9.42,-9.24,
2013-11-18 04:00,10.85,170.3,10.22,1.82,-10.70,
2013-11-18 05:00,11.15,140.5,10.25,7.10,-8.60,
2013-11-18 06:00,13.79,106.0,10.25,13.25,-3.80,
2013-11-18 07:00,16.72,101.8,10.28,16.37,-3.41,
2013-11-18 08:00,17.89,98.3,10.22,17.71,-2.57,
2013-11-18 09:00,16.13,90.9,10.03,16.13,-0.25,
2013-11-18 10:00,12.61,92.6,10.03,12.60,-0.58,
2013-11-18 11:00,7.33,135.2,10.09,5.17,-5.20,
2013-11-18 12:00,5.57,256.8,10.13,-5.43,-1.27,
2013-11-18 13:00,7.33,217.8,10.09,-4.50,-5.79,
2013-11-18 14:00,10.27,173.5,10.09,1.16,-10.20,
2013-11-18 15:00,12.32,196.7,10.09,-3.54,-11.80,
2013-11-18 16:00,14.96,155.9,10.22,6.10,-13.66,
2013-11-18 17:00,19.06,149.3,10.28,9.75,-16.38,
2013-11-18 18:00,22.29,134.1,10.28,16.00,-15.52,
2013-11-18 19:00,27.86,125.7,10.31,22.63,-16.26,
2013-11-18 20:00,30.21,126.7,10.35,24.21,-18.08,
2013-11-18 21:00,24.05,128.9,10.25,18.73,-15.09,
2013-11-18 22:00,17.01,156.3,10.22,6.84,-15.57,
2013-11-18 23:00,13.20,182.7,10.19,-0.61,-13.18,
2013-11-19 00:00,12.03,229.1,10.16,-9.08,-7.88,
2013-11-19 01:00,18.77,265.3,10.13,-18.71,-1.54,
2013-11-19 02:00,14.66,267.4,10.19,-14.65,-0.67,
2013-11-19 03:00,6.16,315.2,10.25,-4.34,4.37,
2013-11-19 04:00,12.91,335.6,10.16,-5.33,11.75,
2013-11-19 05:00,8.80,0.9,10.13,0.13,8.80,
2013-11-19 06:00,18.18,80.3,10.13,17.93,3.05,
2013-11-19 07:00,23.46,90.5,10.13,23.46,-0.22,
2013-11-19 08:00,19.94,101.8,10.13,19.52,-4.07,
2013-11-19 09:00,26.10,105.3,10.06,25.18,-6.89,
2013-11-19 10:00,26.69,128.9,10.00,20.78,-16.75,
2013-11-19 11:00,20.24,145.0,9.97,11.60,-16.58,
2013-11-19 12:00,20.53,167.5,9.90,4.43,-20.05,
2013-11-19 13:00,22.58,207.3,9.97,-10.35,-20.07,
2013-11-19 14:00,23.76,212.2,9.97,-12.66,-20.11,
2013-11-19 15:00,26.40,212.9,10.00,-14.33,-22.17,
2013-11-19 16:00,21.70,228.7,10.03,-16.31,-14.32,
2013-11-19 17:00,13.20,195.3,10.03,-3.49,-12.73,
2013-11-19 18:00,9.09,183.4,10.03,-0.53,-9.08,
2013-11-19 19:00,12.61,124.6,10.00,10.38,-7.17,
2013-11-19 20:00,12.61,135.5,10.00,8.83,-9.00,
2013-11-19 21:00,7.04,114.4,10.00,6.41,-2.91,
2013-11-19 22:00,13.49,106.7,9.97,12.92,-3.88,
2013-11-19 23:00,3.52,173.2,9.94,0.42,-3.49,
2013-11-20 00:00,5.87,176.0,9.94,0.41,-5.85,
2013-11-20 01:00,3.81,225.5,9.97,-2.72,-2.67,
2013-11-20 02:00,12.32,268.4,9.97,-12.31,-0.33,
2013-11-20 03:00,13.79,216.8,9.94,-8.25,-11.04,
2013-11-20 04:00,15.84,225.9,9.94,-11.37,-11.02,
2013-11-20 05:00,3.52,195.3,9.90,-0.93,-3.39,